When you browse on this site, cookies collect data to enhance your experience and personalize the content and advertising you see.
Visit our Privacy Policy to learn more. By continuing to use the site, you agree to this use of cookies and data.
  • en Belgique
  • Liste des pays
  • À 7 jours
  • Température de l'eau
  • Carte satellitaire
  • Carte météo
  • Widgets météo
  • user-avatar
    Se connecter

    Météo par heure à Heidelberg

    Ce jour, 18 Juillet, Jeudi

    Heure Température Précipitation Vent Pression Humidité
    00:00 +18°C° 0 mm 1 m/s 731 mmHg 59%
    01:00 +18°C° 0 mm 1 m/s 731 mmHg 57%
    02:00 +16°C° 0 mm 1 m/s 730 mmHg 60%
    03:00 +16°C° 0 mm 1 m/s 730 mmHg 64%
    04:00 +16°C° 0 mm 1 m/s 730 mmHg 67%
    05:00 +15°C° 0 mm 0 m/s 730 mmHg 65%
    06:00 +16°C° 0 mm 0 m/s 730 mmHg 64%
    07:00 +17°C° 0 mm 0 m/s 730 mmHg 55%
    08:00 +20°C° 0 mm 1 m/s 731 mmHg 51%
    09:00 +22°C° 0 mm 1 m/s 731 mmHg 47%
    10:00 +24°C° 0 mm 2 m/s 731 mmHg 43%
    11:00 +25°C° 0 mm 2 m/s 731 mmHg 40%
    12:00 +26°C° 0 mm 2 m/s 731 mmHg 37%
    13:00 +28°C° 0 mm 3 m/s 731 mmHg 34%
    14:00 +28°C° 0 mm 3 m/s 731 mmHg 34%
    15:00 +28°C° 0 mm 3 m/s 731 mmHg 35%
    16:00 +28°C° 0 mm 3 m/s 731 mmHg 35%
    17:00 +27°C° 0 mm 3 m/s 731 mmHg 40%
    18:00 +26°C° 0 mm 2 m/s 731 mmHg 44%
    19:00 +25°C° 0 mm 2 m/s 730 mmHg 49%
    20:00 +23°C° 0.3 mm 2 m/s 731 mmHg 57%
    21:00 +21°C° 0.3 mm 2 m/s 731 mmHg 65%
    22:00 +19°C° 0.3 mm 2 m/s 731 mmHg 72%
    23:00 +20°C° 0.2 mm 1 m/s 731 mmHg 74%

    Demain, 19 Juillet, Vendredi

    Heure Température Précipitation Vent Pression Humidité
    00:00 +19°C° 0.2 mm 1 m/s 732 mmHg 75%
    01:00 +19°C° 0.2 mm 1 m/s 732 mmHg 76%
    02:00 +19°C° 0 mm 1 m/s 732 mmHg 77%
    03:00 +18°C° 0 mm 1 m/s 732 mmHg 77%
    04:00 +18°C° 0 mm 1 m/s 732 mmHg 77%
    05:00 +19°C° 0 mm 1 m/s 732 mmHg 77%
    06:00 +19°C° 0 mm 1 m/s 732 mmHg 77%
    07:00 +20°C° 0 mm 1 m/s 733 mmHg 77%
    08:00 +19°C° 0.2 mm 2 m/s 733 mmHg 75%
    09:00 +20°C° 0.2 mm 2 m/s 733 mmHg 73%
    10:00 +21°C° 0.2 mm 3 m/s 733 mmHg 70%
    11:00 +22°C° 0.2 mm 3 m/s 733 mmHg 66%
    12:00 +24°C° 0.2 mm 3 m/s 733 mmHg 61%
    13:00 +25°C° 0.2 mm 3 m/s 733 mmHg 56%
    14:00 +25°C° 0.2 mm 3 m/s 733 mmHg 55%
    15:00 +26°C° 0.2 mm 3 m/s 733 mmHg 53%
    16:00 +26°C° 0.2 mm 3 m/s 732 mmHg 51%
    17:00 +26°C° 0.2 mm 2 m/s 732 mmHg 55%
    18:00 +25°C° 0.2 mm 2 m/s 732 mmHg 59%
    19:00 +24°C° 0.2 mm 2 m/s 732 mmHg 63%
    20:00 +23°C° 0.1 mm 1 m/s 733 mmHg 68%
    21:00 +22°C° 0.1 mm 1 m/s 733 mmHg 72%
    22:00 +19°C° 0.1 mm 0 m/s 733 mmHg 76%
    23:00 +18°C° 0 mm 0 m/s 733 mmHg 78%

    Après-demain, 20 Juillet, Samedi

    Heure Température Précipitation Vent Pression Humidité
    00:00 +18°C° 0 mm 0 m/s 733 mmHg 79%
    01:00 +17°C° 0 mm 0 m/s 733 mmHg 81%
    02:00 +17°C° 0 mm 0 m/s 732 mmHg 82%
    03:00 +19°C° 0 mm 1 m/s 732 mmHg 83%
    04:00 +18°C° 0 mm 1 m/s 732 mmHg 83%
    05:00 +19°C° 0 mm 1 m/s 732 mmHg 80%
    06:00 +20°C° 0 mm 1 m/s 732 mmHg 77%
    07:00 +21°C° 0 mm 1 m/s 732 mmHg 74%
    08:00 +23°C° 0 mm 1 m/s 732 mmHg 67%
    09:00 +25°C° 0 mm 2 m/s 732 mmHg 60%
    10:00 +27°C° 0 mm 2 m/s 732 mmHg 52%
    11:00 +28°C° 0 mm 3 m/s 732 mmHg 49%
    12:00 +29°C° 0 mm 3 m/s 732 mmHg 45%
    13:00 +30°C° 0 mm 4 m/s 732 mmHg 41%
    14:00 +30°C° 0 mm 4 m/s 732 mmHg 41%
    15:00 +32°C° 0 mm 4 m/s 732 mmHg 40%
    16:00 +32°C° 0 mm 4 m/s 732 mmHg 40%
    17:00 +30°C° 0 mm 4 m/s 732 mmHg 43%
    18:00 +29°C° 0 mm 3 m/s 732 mmHg 45%
    19:00 +29°C° 0 mm 3 m/s 732 mmHg 48%
    20:00 +27°C° 0 mm 3 m/s 732 mmHg 53%
    21:00 +25°C° 0 mm 2 m/s 733 mmHg 59%
    22:00 +24°C° 0 mm 2 m/s 733 mmHg 64%
    23:00 +23°C° 0.5 mm 2 m/s 733 mmHg 69%

    21 Juillet, Dimanche

    Heure Température Précipitation Vent Pression Humidité
    00:00 +21°C° 0.5 mm 2 m/s 733 mmHg 75%
    01:00 +20°C° 0.5 mm 3 m/s 734 mmHg 81%
    02:00 +20°C° 0.3 mm 2 m/s 734 mmHg 82%
    03:00 +20°C° 0.3 mm 2 m/s 734 mmHg 84%
    04:00 +20°C° 0.3 mm 1 m/s 734 mmHg 85%
    05:00 +20°C° 0 mm 2 m/s 735 mmHg 84%
    06:00 +20°C° 0 mm 2 m/s 735 mmHg 83%
    07:00 +20°C° 0 mm 2 m/s 736 mmHg 81%
    08:00 +23°C° 0 mm 2 m/s 736 mmHg 74%
    09:00 +24°C° 0 mm 2 m/s 737 mmHg 66%
    10:00 +25°C° 0 mm 3 m/s 737 mmHg 58%
    11:00 +26°C° 0 mm 3 m/s 737 mmHg 53%
    12:00 +27°C° 0 mm 3 m/s 737 mmHg 48%
    13:00 +28°C° 0 mm 4 m/s 737 mmHg 43%
    14:00 +29°C° 0 mm 4 m/s 737 mmHg 41%
    15:00 +29°C° 0 mm 4 m/s 737 mmHg 40%
    16:00 +29°C° 0 mm 3 m/s 737 mmHg 38%
    17:00 +28°C° 0 mm 3 m/s 737 mmHg 42%
    18:00 +27°C° 0 mm 2 m/s 737 mmHg 47%
    19:00 +26°C° 0 mm 2 m/s 737 mmHg 51%
    20:00 +25°C° 0 mm 2 m/s 738 mmHg 53%
    21:00 +23°C° 0 mm 1 m/s 738 mmHg 56%
    22:00 +22°C° 0 mm 1 m/s 738 mmHg 58%
    23:00 +21°C° 0 mm 1 m/s 738 mmHg 60%

    22 Juillet, Lundi

    Heure Température Précipitation Vent Pression Humidité
    00:00 +21°C° 0 mm 1 m/s 738 mmHg 63%
    01:00 +20°C° 0 mm 1 m/s 738 mmHg 65%
    02:00 +20°C° 0 mm 1 m/s 738 mmHg 67%
    03:00 +19°C° 0 mm 1 m/s 738 mmHg 68%
    04:00 +19°C° 0 mm 1 m/s 738 mmHg 70%
    05:00 +20°C° 0 mm 1 m/s 739 mmHg 68%
    06:00 +21°C° 0 mm 1 m/s 739 mmHg 66%
    07:00 +22°C° 0 mm 1 m/s 739 mmHg 64%
    08:00 +24°C° 0 mm 1 m/s 739 mmHg 58%
    09:00 +26°C° 0 mm 1 m/s 739 mmHg 53%
    10:00 +28°C° 0 mm 1 m/s 739 mmHg 47%
    11:00 +29°C° 0 mm 1 m/s 739 mmHg 43%
    12:00 +30°C° 0 mm 1 m/s 739 mmHg 39%
    13:00 +32°C° 0 mm 1 m/s 739 mmHg 35%
    14:00 +31°C° 0 mm 2 m/s 739 mmHg 36%
    15:00 +31°C° 0 mm 2 m/s 738 mmHg 36%
    16:00 +31°C° 0 mm 2 m/s 738 mmHg 37%
    17:00 +30°C° 0 mm 3 m/s 738 mmHg 43%
    18:00 +29°C° 0 mm 3 m/s 738 mmHg 48%
    19:00 +28°C° 0 mm 3 m/s 738 mmHg 54%
    20:00 +26°C° 0 mm 3 m/s 738 mmHg 55%
    21:00 +25°C° 0 mm 2 m/s 738 mmHg 57%
    22:00 +23°C° 0 mm 2 m/s 738 mmHg 58%
    23:00 +23°C° 0 mm 2 m/s 738 mmHg 59%

    23 Juillet, Mardi

    Heure Température Précipitation Vent Pression Humidité
    00:00 +21°C° 0 mm 2 m/s 738 mmHg 60%
    01:00 +21°C° 0 mm 2 m/s 738 mmHg 61%
    02:00 +20°C° 0 mm 2 m/s 737 mmHg 62%
    03:00 +20°C° 0 mm 2 m/s 737 mmHg 63%
    04:00 +19°C° 0 mm 2 m/s 737 mmHg 64%
    05:00 +20°C° 0 mm 2 m/s 737 mmHg 63%
    06:00 +21°C° 0 mm 2 m/s 737 mmHg 63%
    07:00 +23°C° 0 mm 2 m/s 737 mmHg 63%
    08:00 +25°C° 0 mm 2 m/s 737 mmHg 57%
    09:00 +27°C° 0 mm 3 m/s 737 mmHg 52%
    10:00 +29°C° 0 mm 3 m/s 737 mmHg 46%
    11:00 +30°C° 0 mm 3 m/s 737 mmHg 43%
    12:00 +32°C° 0 mm 4 m/s 737 mmHg 40%
    13:00 +34°C° 0 mm 4 m/s 736 mmHg 37%
    14:00 +34°C° 0 mm 4 m/s 736 mmHg 37%
    15:00 +34°C° 0 mm 4 m/s 736 mmHg 37%
    16:00 +34°C° 0 mm 4 m/s 735 mmHg 38%
    17:00 +33°C° 0 mm 4 m/s 735 mmHg 42%
    18:00 +31°C° 0 mm 3 m/s 735 mmHg 47%
    19:00 +29°C° 0 mm 3 m/s 734 mmHg 51%
    20:00 +28°C° 0 mm 3 m/s 734 mmHg 56%
    21:00 +26°C° 0 mm 2 m/s 735 mmHg 60%
    22:00 +25°C° 0 mm 2 m/s 735 mmHg 64%
    23:00 +24°C° 0 mm 2 m/s 735 mmHg 66%
    Voir plus